Chester, MD

7:11 AM EDT on August 27, 2016 (GMT -0400)
Stevensville

Weather History for KW29 - May, 2014

Change the Weather History Date:

Friday, May 30, 2014

  Actual Average (KESN) Record (KESN)
Temperature  
Mean Temperature 61 °F -  
Max Temperature 69 °F 77 °F 93 °F (1959)
Min Temperature 53 °F 58 °F 40 °F (1949)
Degree Days  
Heating Degree Days 4    
Growing Degree Days 11 (Base 50)    
Moisture  
Dew Point 55 °F    
Average Humidity 84    
Maximum Humidity 100    
Minimum Humidity 53    
Precipitation  
Precipitation 0.00 in - - ()
Sea Level Pressure  
Sea Level Pressure 30.12 in    
Wind  
Wind Speed 3 mph (NNW)    
Max Wind Speed 9 mph    
Max Gust Speed -    
Visibility 9 miles    
Events      
Averages and records for this station are not official NWS values.
T = Trace of Precipitation, MM = Missing Value Source: NWS Daily Summary

Daily Weather History Graph

Daily Weather History Graph

Search for Another Location

Airport or City:

Trip Planner

Search our weather history database for the weather conditions in past years. The results will help you decide how hot, cold, wet, or windy it might be!

Date:

Astronomy

May. 30, 2014 Rise Set
Actual Time 5:42 AM EDT 8:23 PM EDT
Civil Twilight 5:11 AM EDT 8:55 PM EDT
Nautical Twilight 4:32 AM EDT 9:34 PM EDT
Astronomical Twilight 3:48 AM EDT 10:18 PM EDT
Moon 7:24 AM EDT (5/30) 9:59 PM EDT (5/30)
Length of Visible Light 15h 43m
Length of Day
14h 41m
Waxing Crescent, 4% of the Moon is Illuminated
May 30
Waxing Crescent
Jun 5
First Quarter
Jun 13
Full
Jun 19
Last Quarter
Jun 27
New

Hourly Weather History & Observations

Time (EDT) Temp. Dew Point Humidity Pressure Visibility Wind Dir Wind Speed Gust Speed Precip Events Conditions
12:15 AM 55.4 °F 55.4 °F 100% 30.15 in 10.0 mi ESE 4.6 mph - N/A   Unknown
12:55 AM 53.6 °F 53.6 °F 100% 30.15 in 7.0 mi East 3.5 mph - N/A   Light Drizzle
1:15 AM 53.6 °F 53.6 °F 100% 30.14 in 7.0 mi East 4.6 mph - N/A   Unknown
1:35 AM 53.6 °F 53.6 °F 100% 30.14 in 7.0 mi ESE 3.5 mph - N/A   Unknown
1:55 AM 53.6 °F 53.6 °F 100% 30.14 in 5.0 mi East 5.8 mph - N/A   Mist
2:15 AM 53.6 °F 53.6 °F 100% 30.14 in 10.0 mi East 3.5 mph - N/A   Unknown
2:35 AM 53.6 °F 53.6 °F 100% 30.14 in 7.0 mi East 3.5 mph - N/A   Unknown
2:55 AM 53.6 °F 53.6 °F 100% 30.14 in 3.0 mi ESE 4.6 mph - N/A   Mist
3:15 AM 53.6 °F 53.6 °F 100% 30.13 in 3.0 mi SE 4.6 mph - N/A   Mist
3:35 AM 53.6 °F 53.6 °F 100% 30.12 in 5.0 mi ESE 4.6 mph - N/A   Mist
3:55 AM 53.6 °F 53.6 °F 100% 30.12 in 10.0 mi Calm Calm - N/A   Unknown
4:15 AM 53.6 °F 53.6 °F 100% 30.12 in 10.0 mi Calm Calm - N/A   Unknown
4:35 AM 55.4 °F 55.4 °F 100% 30.12 in 10.0 mi Calm Calm - N/A   Unknown
5:15 AM 55.4 °F 55.4 °F 100% 30.12 in 10.0 mi Calm Calm - N/A   Unknown
5:35 AM 55.4 °F 55.4 °F 100% 30.12 in 7.0 mi Calm Calm - N/A   Unknown
5:55 AM 55.4 °F 55.4 °F 100% 30.11 in 10.0 mi Calm Calm - N/A   Unknown
6:35 AM 55.4 °F 55.4 °F 100% 30.12 in 10.0 mi Calm Calm - N/A   Unknown
6:55 AM 55.4 °F 55.4 °F 100% 30.12 in 10.0 mi Calm Calm - N/A   Unknown
7:16 AM 55.4 °F 55.4 °F 100% 30.12 in 10.0 mi Calm Calm - N/A   Unknown
7:36 AM 57.2 °F 55.4 °F 94% 30.12 in 10.0 mi Calm Calm - N/A   Unknown
7:56 AM 57.2 °F 55.4 °F 94% 30.13 in 10.0 mi Calm Calm - N/A   Unknown
8:16 AM 57.2 °F 55.4 °F 94% 30.14 in 10.0 mi Calm Calm - N/A   Unknown
8:36 AM 57.2 °F 55.4 °F 94% 30.14 in 10.0 mi Calm Calm - N/A   Unknown
8:56 AM 59.0 °F 55.4 °F 88% 30.15 in 10.0 mi North 3.5 mph - N/A   Unknown
9:16 AM 59.0 °F 55.4 °F 88% 30.15 in 10.0 mi North 3.5 mph - N/A   Unknown
9:36 AM 59.0 °F 55.4 °F 88% 30.15 in 10.0 mi North 4.6 mph - N/A   Unknown
9:56 AM 59.0 °F 57.2 °F 94% 30.15 in 10.0 mi North 3.5 mph - N/A   Unknown
10:16 AM 59.0 °F 55.4 °F 88% 30.15 in 10.0 mi North 5.8 mph - N/A   Unknown
10:36 AM 60.8 °F 55.4 °F 82% 30.15 in 10.0 mi North 6.9 mph - N/A   Unknown
10:56 AM 60.8 °F 53.6 °F 77% 30.15 in 10.0 mi North 6.9 mph - N/A   Unknown
11:16 AM 60.8 °F 53.6 °F 77% 30.15 in 10.0 mi North 8.1 mph - N/A   Unknown
11:36 AM 60.8 °F 53.6 °F 77% 30.15 in 10.0 mi North 9.2 mph - N/A   Unknown
11:56 AM 62.6 °F 53.6 °F 72% 30.15 in 10.0 mi North 6.9 mph - N/A   Unknown
12:16 PM 62.6 °F 51.8 °F 68% 30.15 in 10.0 mi NNW 6.9 mph - N/A   Unknown
12:36 PM 62.6 °F 51.8 °F 68% 30.15 in 10.0 mi NNW 6.9 mph - N/A   Unknown
12:56 PM 62.6 °F 53.6 °F 72% 30.14 in 10.0 mi NNE 4.6 mph - N/A   Unknown
1:16 PM 64.4 °F 53.6 °F 68% 30.14 in 10.0 mi NNW 4.6 mph - N/A   Unknown
1:36 PM 64.4 °F 51.8 °F 64% 30.15 in 10.0 mi NNW 4.6 mph - N/A   Unknown
1:56 PM 64.4 °F 51.8 °F 64% 30.14 in 10.0 mi NNW 5.8 mph - N/A   Unknown
2:16 PM 64.4 °F 53.6 °F 68% 30.14 in 10.0 mi North 6.9 mph - N/A   Unknown
3:56 PM 68.0 °F 53.6 °F 60% 30.11 in 10.0 mi North 4.6 mph - N/A   Unknown
5:37 PM 69.8 °F 53.6 °F 56% 30.10 in 10.0 mi Calm Calm - N/A   Unknown
5:57 PM 69.8 °F 53.6 °F 56% 30.09 in 10.0 mi Calm Calm - N/A   Unknown
6:17 PM 69.8 °F 51.8 °F 53% 30.08 in 10.0 mi West 4.6 mph - N/A   Unknown
6:37 PM 69.8 °F 53.6 °F 56% 30.07 in 10.0 mi Calm Calm - N/A   Unknown
6:57 PM 69.8 °F 53.6 °F 56% 30.07 in 10.0 mi West 3.5 mph - N/A   Unknown
7:17 PM 68.0 °F 53.6 °F 60% 30.07 in 10.0 mi Calm Calm - N/A   Unknown
7:37 PM 68.0 °F 53.6 °F 60% 30.07 in 10.0 mi SW 3.5 mph - N/A   Unknown
7:57 PM 66.2 °F 55.4 °F 68% 30.07 in 10.0 mi SW 3.5 mph - N/A   Unknown
8:17 PM 64.4 °F 55.4 °F 73% 30.07 in 10.0 mi SSW 3.5 mph - N/A   Unknown
8:37 PM 64.4 °F 55.4 °F 73% 30.07 in 10.0 mi SSW 3.5 mph - N/A   Unknown
8:57 PM 64.4 °F 57.2 °F 77% 30.07 in 10.0 mi SSW 3.5 mph - N/A   Unknown
9:17 PM 64.4 °F 59.0 °F 83% 30.07 in 10.0 mi SSW 4.6 mph - N/A   Unknown
9:57 PM 64.4 °F 59.0 °F 83% 30.08 in 10.0 mi SW 4.6 mph - N/A   Unknown
10:17 PM 64.4 °F 59.0 °F 83% 30.09 in 10.0 mi SW 5.8 mph - N/A   Unknown
10:37 PM 64.4 °F 59.0 °F 83% 30.09 in 10.0 mi SW 6.9 mph - N/A   Unknown
10:57 PM 62.6 °F 59.0 °F 88% 30.09 in 10.0 mi SW 3.5 mph - N/A   Unknown
11:17 PM 62.6 °F 59.0 °F 88% 30.09 in 10.0 mi SW 3.5 mph - N/A   Unknown
11:37 PM 62.6 °F 59.0 °F 88% 30.09 in 10.0 mi SW 4.6 mph - N/A   Unknown
11:57 PM 64.4 °F 60.8 °F 88% 30.09 in 10.0 mi SW 3.5 mph - N/A   Unknown